Wind_Speed
10 9 11 14 14 13 12 12 9 6 6 5 4 7 10 14 19 17 14 16 6 12 17 18 19 20 19 18 17 12 10 14 16 20 22 19 16 14 11 7 3 2 3 5 6 8 10 12 15 19 19 17 18 19 15 16 20 20 20 18 15 13 10 8 6 4 3 2 5 8 10 12 15 18 18 16 13 10 8 7 7 8 10 12 14 16
9 9 8 10 11 9 8 6 6 6 5 4 5 9 11 14 19 14 11 14 5 6 11 15 15 17 17 16 15 13 14 17 19 21 21 18 16 14 10 7 5 4 4 7 7 9 9 9 12 14 16 15 15 16 15 17 21 21 21 19 15 13 10 9 7 5 3 2 5 7 9 11 14 16 17 16 14 11 8 7 7 7 8 10 11 13
8 7 9 12 10 8 7 6 6 7 6 5 7 10 11 13 15 12 7 10 5 1 3 8 8 10 13 15 16 15 14 17 18 19 19 17 16 14 12 10 7 5 5 7 7 9 9 9 10 12 16 16 14 14 15 17 20 22 22 19 16 14 12 10 8 5 2 1 4 6 8 11 13 14 16 16 14 12 9 7 6 7 7 8 9 10
8 9 13 11 8 8 7 7 8 8 7 6 8 12 13 11 10 11 9 6 6 5 3 3 6 9 10 12 16 16 16 17 17 20 20 18 17 14 13 11 7 5 6 6 7 9 10 11 10 10 13 15 14 15 17 18 21 23 22 19 17 15 14 12 9 6 3 1 2 5 7 10 12 14 15 16 15 13 11 8 6 6 6 6 7 8
9 10 6 3 4 6 7 8 10 9 8 7 11 15 13 8 5 6 9 7 3 5 4 4 7 9 8 6 10 14 17 19 19 21 22 20 18 15 13 11 8 6 6 5 4 4 6 8 9 9 11 13 13 14 18 19 21 23 22 19 17 17 15 13 10 8 5 2 2 4 6 9 11 13 15 16 16 15 13 10 8 7 6 4 5 6
9 5 4 6 6 8 9 10 12 11 9 10 12 13 10 7 4 3 6 7 3 2 3 2 4 6 8 5 5 8 13 19 21 23 22 21 21 19 16 13 11 10 8 6 4 3 5 7 9 11 12 12 12 13 16 18 20 23 22 19 18 18 17 15 12 9 6 4 3 3 5 7 10 12 14 15 15 14 13 11 10 9 7 5 4 5
9 3 7 10 11 11 11 12 13 12 11 12 12 11 11 8 5 3 5 4 4 1 3 2 1 4 6 5 3 3 5 13 20 23 24 24 23 22 19 14 13 13 12 9 8 8 8 8 8 9 10 11 12 14 15 17 21 23 23 20 19 19 18 16 13 11 8 5 4 5 6 7 9 11 13 14 14 13 13 12 10 10 9 7 5 4
8 5 7 11 12 11 11 11 12 12 13 13 12 11 10 7 6 6 5 3 2 3 2 1 2 3 2 2 2 1 1 7 16 22 26 27 24 23 20 16 15 14 13 12 10 10 10 9 7 7 8 9 11 15 16 18 21 24 24 22 21 21 19 17 15 12 9 7 6 6 6 7 8 10 11 12 13 12 11 11 10 9 8 7 6 4
7 6 7 11 10 10 10 9 11 13 13 14 13 10 6 3 4 5 5 4 3 3 3 3 5 4 4 3 2 2 1 2 8 16 23 26 25 24 21 17 16 15 15 14 10 9 9 8 6 6 7 7 10 14 17 18 21 24 25 24 23 23 21 18 16 13 10 8 8 7 7 7 8 9 9 11 11 10 9 9 8 8 8 7 5 4
9 9 10 13 10 10 9 8 10 11 12 12 12 11 7 5 5 3 5 6 5 4 3 3 6 4 4 7 7 4 4 2 4 10 17 24 27 25 20 17 17 18 17 14 11 9 9 7 7 7 8 9 10 13 17 19 21 24 26 26 26 24 22 19 17 15 12 10 9 7 8 9 8 7 8 9 10 9 8 8 8 8 7 7 6 4
15 14 13 12 10 11 10 8 9 9 7 7 9 10 8 7 7 5 6 8 5 2 4 5 6 6 2 6 9 8 7 5 7 10 15 24 29 25 21 19 19 20 19 16 14 13 12 11 9 9 9 10 11 12 16 19 21 22 24 27 28 27 24 21 18 16 14 13 12 10 11 12 8 6 6 7 8 8 8 8 8 8 8 8 7 5
18 17 14 11 11 14 15 13 10 7 7 6 5 5 6 5 6 5 5 8 4 1 5 7 6 7 4 5 9 11 11 10 10 10 13 21 27 25 22 22 21 21 20 18 16 16 16 13 11 10 10 10 10 11 11 13 18 23 26 28 30 30 26 23 20 19 18 16 15 13 13 13 10 7 6 5 6 7 7 7 7 8 9 9 9 8
16 17 14 11 12 14 15 14 10 8 9 9 6 5 6 2 2 3 2 3 2 2 7 7 5 5 5 6 10 13 15 14 11 9 11 19 23 22 23 24 23 22 21 20 18 17 16 15 13 12 10 9 9 9 7 11 18 24 24 25 27 28 27 25 23 22 22 20 18 15 14 14 12 9 7 5 5 5 5 5 6 7 9 10 10 10
12 13 13 11 11 14 15 14 11 9 9 11 11 9 7 3 3 2 2 0 1 3 7 8 4 3 4 3 8 12 15 16 13 9 12 17 18 18 21 24 25 24 23 21 19 17 16 16 14 13 11 9 9 7 8 13 18 19 19 20 22 24 26 26 25 26 26 23 20 17 15 14 13 12 10 8 5 3 2 2 4 6 7 9 10 11
8 7 11 13 11 11 14 14 12 9 8 11 13 11 9 7 3 3 3 2 3 4 7 7 3 2 5 3 3 3 7 10 11 12 15 16 16 17 19 24 27 27 26 23 19 17 17 16 15 14 13 10 8 7 11 16 19 17 17 20 19 19 24 26 26 28 28 27 24 22 20 16 14 14 13 11 7 4 3 1 2 4 6 8 9 10
9 6 7 11 10 7 10 15 13 10 9 10 13 12 11 9 6 4 2 3 4 4 3 4 3 5 9 8 7 6 4 3 5 9 15 16 17 19 22 27 30 29 26 22 19 18 16 17 16 14 12 10 9 11 15 18 18 14 13 17 18 19 21 22 24 28 30 31 30 28 25 20 16 17 16 14 9 6 5 4 3 3 4 6 7 8
9 9 8 9 9 8 10 12 12 10 8 9 12 12 10 10 9 6 3 3 4 3 2 4 5 10 12 9 7 6 4 7 10 8 9 11 15 19 22 27 28 27 25 21 21 20 18 18 16 13 11 10 11 14 16 17 15 11 9 15 20 20 15 12 16 24 30 32 31 30 27 22 20 20 19 17 13 9 7 6 5 4 3 4 5 6
10 8 9 9 8 9 12 11 11 11 10 10 11 11 9 7 9 8 3 3 3 1 3 3 4 10 10 7 9 10 7 7 9 8 7 9 12 14 15 17 15 14 18 22 23 18 14 14 12 11 12 12 14 16 17 16 13 11 11 16 19 17 12 12 14 19 26 31 32 30 28 26 25 24 22 21 19 12 9 8 6 5 4 3 3 3
14 9 7 8 7 6 10 11 11 11 10 8 8 10 9 5 8 10 5 2 2 1 2 0 3 6 6 5 11 14 14 13 12 10 9 9 10 10 10 13 14 13 13 17 18 13 11 12 13 13 14 14 15 17 17 15 12 10 10 12 13 12 12 16 16 16 20 26 27 27 29 30 31 30 26 23 21 15 12 11 8 7 7 5 4 3
16 12 7 7 8 7 8 10 10 7 6 5 7 11 9 5 8 11 7 5 5 3 2 0 2 2 5 6 9 13 16 18 18 16 15 15 15 14 13 14 14 12 12 12 12 13 15 16 16 15 13 12 12 12 11 9 7 6 7 9 8 9 11 14 16 16 17 20 21 23 28 33 34 33 28 24 23 18 14 13 11 10 9 7 6 5
17 16 11 8 9 9 6 7 7 5 5 5 6 9 9 7 8 9 6 6 6 4 3 2 1 3 6 5 5 8 11 15 17 15 12 11 10 12 13 14 13 11 11 10 9 9 11 10 10 11 10 9 8 7 6 6 4 4 5 7 8 9 10 11 13 14 14 16 17 19 27 34 34 31 28 27 25 20 17 16 15 14 12 10 9 8
18 18 16 9 8 9 7 6 4 2 3 2 2 5 7 8 9 8 5 6 7 5 5 5 2 5 8 6 4 6 7 11 12 10 10 9 8 12 15 16 13 10 9 7 6 7 10 10 10 10 10 9 7 6 6 5 4 4 4 6 7 8 9 9 11 13 13 14 16 17 23 33 35 30 28 31 28 23 21 20 19 18 17 15 13 12
16 16 16 10 8 9 7 5 3 1 3 3 2 5 6 6 9 8 5 8 10 6 6 8 4 6 9 7 7 9 9 11 11 8 8 10 12 14 16 14 10 8 6 4 4 7 9 10 11 12 11 10 9 8 8 6 6 5 5 5 6 6 7 7 9 12 13 15 17 17 21 29 34 32 30 33 31 25 25 24 22 21 20 18 17 15
13 13 13 9 8 9 8 5 4 4 5 4 3 6 7 5 7 6 6 12 13 9 9 7 2 5 10 8 8 10 10 11 11 9 8 9 11 13 14 13 12 11 10 11 10 11 13 12 11 11 11 11 11 11 10 9 8 8 7 6 6 5 5 5 7 11 13 15 18 19 19 23 30 33 33 34 32 28 28 27 25 23 22 22 21 18
10 10 11 8 8 9 7 4 5 6 6 5 6 6 6 5 6 5 7 12 12 10 12 8 3 7 10 9 9 10 10 11 11 9 8 8 8 9 10 11 11 11 13 14 13 12 13 13 12 10 10 10 12 13 13 12 11 10 9 8 7 6 6 6 7 9 12 14 16 18 18 20 27 32 34 34 32 30 31 30 27 25 25 26 24 21
8 8 10 7 4 6 5 4 8 9 6 5 4 2 3 6 6 6 7 8 7 9 12 10 9 12 12 12 12 11 10 9 9 9 9 9 8 9 9 10 10 10 10 10 11 12 13 14 14 14 15 15 14 14 14 13 13 12 11 10 9 8 8 8 8 9 10 11 12 14 17 20 23 28 31 32 32 31 32 30 26 24 24 25 24 22
6 6 8 7 3 6 7 7 11 12 7 3 2 3 2 1 3 4 5 4 6 9 9 11 16 18 15 14 14 13 11 9 9 9 10 10 11 11 12 12 12 11 10 9 10 10 11 12 12 14 17 18 16 15 15 14 14 13 12 11 10 10 10 10 10 11 10 11 11 12 15 18 20 23 25 26 27 28 27 25 23 23 22 22 22 22
7 5 6 5 3 6 7 6 7 7 6 5 5 6 5 4 2 1 2 4 7 9 9 15 21 21 18 15 13 13 12 11 10 10 10 11 12 13 14 14 14 14 13 13 12 11 10 10 11 12 14 16 16 15 15 15 14 14 13 12 12 11 11 11 11 12 12 12 11 11 14 15 15 18 19 20 23 25 22 20 20 22 22 21 21 23
14 9 6 6 5 6 7 6 3 3 3 3 4 6 6 6 6 3 3 5 5 5 11 20 23 21 20 17 14 14 14 12 11 12 12 12 13 14 14 14 14 14 15 15 15 14 12 11 12 13 13 14 15 16 16 15 14 13 13 13 13 12 12 12 12 13 13 13 12 12 13 13 14 17 18 19 22 22 20 20 21 22 21 22 23 25
11 10 8 7 7 7 7 6 7 9 8 4 2 3 4 6 6 4 5 7 5 5 14 22 20 19 19 17 15 15 14 14 14 14 15 15 14 15 15 15 15 14 14 14 15 15 15 14 14 14 13 13 12 13 15 15 15 14 13 12 13 13 13 13 13 13 14 14 14 14 14 14 15 17 18 19 20 21 21 21 20 19 19 20 22 22
9 9 9 8 8 8 7 8 8 10 10 7 4 3 3 4 5 5 6 8 8 9 16 18 16 16 17 15 15 16 15 16 16 16 17 17 16 16 16 15 15 15 15 16 16 17 18 17 16 15 14 13 11 11 13 14 15 14 12 12 12 13 14 14 14 13 14 14 15 15 15 14 15 16 17 17 17 18 17 15 13 13 14 14 15 15
9 9 10 10 10 10 9 8 8 8 7 5 4 4 5 5 6 7 7 8 9 12 16 17 16 16 16 16 16 16 16 16 16 18 19 19 19 18 17 16 16 16 17 18 18 19 20 20 20 19 18 16 14 14 14 14 15 15 13 13 13 13 14 14 14 14 14 15 16 17 16 15 15 15 15 14 13 12 11 10 11 11 11 11 10 11
10 9 11 12 10 11 11 9 8 7 4 3 5 6 7 8 8 9 9 9 12 15 17 17 17 17 18 18 16 15 16 16 16 18 19 20 20 20 20 19 18 18 18 19 19 19 20 21 22 23 23 21 20 19 18 18 17 16 15 15 15 15 15 15 15 15 14 15 16 16 15 15 15 16 16 15 14 13 13 12 12 11 11 11 12 12
11 10 11 11 9 9 10 9 6 4 3 4 6 6 5 7 8 9 10 12 15 17 17 16 17 18 19 19 17 16 15 15 16 18 19 20 21 22 23 23 21 20 20 19 20 20 21 22 23 24 25 25 25 25 25 24 21 18 16 16 16 17 18 17 17 17 17 17 16 16 15 15 15 16 16 16 16 15 15 15 14 14 14 14 15 16
12 12 12 12 9 7 8 7 3 2 5 7 8 8 8 8 9 9 10 14 16 16 15 16 17 18 18 19 18 16 16 16 18 19 20 20 21 22 23 24 24 24 23 22 22 22 23 24 24 25 27 27 28 29 30 28 24 21 20 20 20 20 20 21 20 20 20 20 19 18 18 17 17 18 17 17 18 18 17 17 17 17 18 18 18 19
13 13 13 13 11 9 8 8 4 3 9 12 12 13 14 11 10 9 11 14 16 16 17 18 18 17 16 16 16 16 16 16 17 18 19 20 19 19 19 20 21 21 22 22 22 22 23 23 24 26 27 27 27 28 29 27 24 24 25 25 24 23 23 24 24 23 23 23 22 22 22 21 21 20 20 19 19 19 18 18 18 19 19 20 21 21
16 15 15 14 12 11 10 9 9 9 12 16 17 17 16 14 13 12 12 14 17 18 19 19 19 18 16 15 15 15 14 14 15 16 17 18 18 18 18 18 18 18 19 20 21 22 23 23 24 25 25 24 23 24 25 26 26 27 28 28 26 26 26 26 26 26 26 26 26 25 25 24 23 22 22 21 20 20 19 19 19 19 20 21 22 22
20 20 19 16 15 16 13 9 9 7 9 17 21 18 16 16 15 14 13 14 17 19 19 20 20 19 18 17 16 15 14 14 15 16 17 19 19 19 19 19 20 20 20 21 22 23 24 25 26 27 28 27 26 25 25 26 27 28 28 28 29 29 30 30 30 29 29 29 28 27 26 25 25 24 23 22 21 21 20 21 22 22 22 23 23 23
18 21 21 19 17 19 18 11 7 6 10 18 22 19 17 16 15 13 12 14 18 18 18 19 19 19 19 18 17 17 16 17 17 17 18 19 18 19 19 19 20 21 22 23 23 24 24 25 26 27 28 29 30 28 27 27 28 30 30 30 31 32 32 31 30 28 28 29 29 29 28 27 26 26 25 24 23 23 23 23 24 24 25 25 25 25
8 15 19 19 17 19 20 14 9 7 10 18 22 20 17 16 15 13 9 12 19 19 17 17 18 18 19 20 20 20 20 19 19 18 18 19 19 19 20 20 20 21 21 23 23 24 25 25 25 25 25 25 26 27 27 28 30 31 31 31 31 31 31 31 29 27 28 28 29 30 30 30 28 27 26 25 25 25 26 27 27 28 28 28 28 28
1 5 10 12 11 14 16 12 7 6 11 18 21 21 18 15 16 15 11 12 17 18 17 17 17 17 19 19 20 20 19 19 20 20 20 20 20 21 21 21 21 20 21 21 23 24 25 25 25 24 24 24 25 26 27 28 29 30 31 31 32 32 32 32 31 30 31 31 31 31 32 32 32 32 31 29 28 28 29 30 31 31 32 32 32 32
2 3 4 5 6 7 9 10 7 5 9 15 18 20 19 16 14 15 15 13 14 15 16 16 16 17 19 20 21 22 22 22 23 23 23 23 23 23 23 24 23 22 22 23 24 25 26 26 27 27 26 27 28 28 29 30 30 31 31 32 33 33 34 33 33 32 32 32 32 33 33 33 34 34 33 32 30 30 31 32 33 34 34 35 35 35
1 1 2 3 4 4 6 7 6 4 7 10 13 15 15 14 13 13 13 12 12 13 14 15 15 16 18 19 20 22 24 24 24 25 25 25 25 25 25 26 26 26 26 26 27 28 29 29 30 30 31 31 31 32 32 31 32 33 33 34 34 34 33 32 32 31 31 30 31 31 31 31 31 31 30 30 30 32 33 34 35 35 36 35 35 35
1 0 1 2 3 4 5 5 6 7 6 6 7 7 6 8 9 9 10 10 10 11 12 13 14 15 16 17 18 20 23 24 25 26 27 27 27 28 28 29 30 31 31 32 32 33 34 34 34 34 35 35 35 36 36 35 35 35 35 35 36 36 35 34 33 33 33 33 34 34 33 33 33 33 33 32 33 34 36 37 37 37 36 35 35 35
1 0 1 1 1 3 4 5 5 5 4 2 3 3 3 4 6 7 8 9 9 10 12 13 15 16 18 19 21 22 24 26 27 29 30 31 32 33 33 34 35 36 37 39 39 40 40 41 41 42 42 41 41 41 41 40 40 39 38 38 38 38 39 38 37 36 35 35 36 36 37 38 37 37 35 34 33 34 36 38 38 37 36 34 33 34
1 1 2 1 0 2 4 5 4 3 3 3 3 4 4 5 6 7 9 11 13 15 16 18 20 21 23 24 25 26 27 29 30 31 32 34 35 35 36 37 38 39 40 41 43 44 44 45 45 46 47 47 47 47 47 47 46 45 43 42 42 41 42 42 41 40 38 37 36 36 36 38 39 39 38 37 35 35 36 36 36 35 34 33 32 32
4 1 3 2 1 2 3 5 5 3 4 4 4 5 6 7 8 10 12 14 16 18 20 22 23 25 26 27 29 30 31 32 33 34 34 34 35 36 36 37 38 39 39 40 41 42 42 42 42 43 44 44 45 45 47 48 49 49 47 46 45 44 43 43 43 43 41 40 38 37 36 37 37 38 40 40 40 39 38 38 37 37 36 35 33 31
5 4 2 2 2 2 3 5 6 6 6 7 8 9 10 11 12 14 16 17 19 21 22 24 26 27 28 30 31 32 33 34 35 36 36 37 38 38 38 39 39 39 40 40 40 41 41 40 40 39 39 39 39 40 40 41 43 44 45 45 45 45 45 45 44 44 44 43 42 41 40 39 38 38 39 41 41 41 41 40 40 40 40 38 35 34
5 5 5 5 5 3 3 5 6 7 9 10 11 12 14 16 17 19 21 21 22 23 24 25 27 28 29 31 32 33 34 34 35 36 38 38 38 39 39 39 39 39 39 39 40 40 40 40 40 39 40 40 39 39 39 38 38 39 40 41 42 43 44 46 46 46 46 45 45 44 43 43 42 42 42 41 41 41 41 42 42 42 42 41 39 38
5 5 5 6 5 3 2 3 5 8 10 12 14 16 17 19 21 22 23 23 24 24 25 26 27 28 30 31 32 32 33 33 34 35 36 37 37 37 38 38 39 39 39 39 40 40 40 40 40 39 39 39 39 40 39 39 39 39 40 41 42 43 44 45 47 48 49 48 47 46 45 45 44 44 44 43 43 42 42 42 42 43 43 43 42 41
4 4 4 4 3 3 4 5 7 9 11 14 16 17 18 20 21 22 23 24 25 25 26 26 27 28 29 30 30 31 32 32 33 34 35 35 35 36 36 36 36 36 37 38 39 39 39 40 40 39 39 39 38 39 39 39 39 39 40 41 43 44 45 46 46 48 49 50 50 49 48 47 47 46 45 45 44 44 44 44 43 43 43 42 42 42
Wind_Direction
206 224 231 218 204 195 197 207 217 235 261 271 287 302 317 319 311 309 325 337 312 211 222 220 219 231 237 245 248 234 201 192 193 198 210 222 227 222 223 233 212 155 151 162 168 179 187 188 189 198 200 195 199 198 190 188 188 191 198 196 189 185 176 175 173 165 167 61 34 26 18 15 18 20 20 17 10 357 332 311 290 271 264 263 263 261
211 234 218 185 171 169 184 201 218 234 245 264 297 312 317 314 308 306 334 351 345 205 219 218 223 231 235 242 233 204 183 188 193 198 210 219 219 218 220 214 189 177 181 175 170 175 182 189 195 202 199 193 196 199 196 194 192 194 198 194 189 187 182 187 191 185 188 36 30 23 13 11 17 21 20 18 14 8 349 324 303 284 270 264 264 263
219 211 161 156 165 174 181 189 209 227 242 271 292 305 314 315 311 302 332 12 33 139 221 218 223 227 230 233 224 213 203 200 200 203 211 218 218 216 210 202 200 208 203 185 177 182 183 185 195 204 203 203 208 213 214 207 199 198 201 197 190 191 192 198 203 200 209 12 23 14 6 5 11 18 20 18 14 15 9 349 323 300 284 271 266 264
203 153 144 159 181 191 193 196 206 222 237 263 284 295 309 316 314 299 301 358 54 75 72 148 175 197 215 220 214 214 217 215 211 210 215 223 226 218 205 205 219 234 224 201 186 187 191 190 196 209 213 216 219 217 214 210 204 203 205 201 194 195 198 204 212 215 227 293 358 360 359 359 4 11 16 16 11 12 15 10 354 330 309 287 274 268
175 128 130 184 202 218 222 214 212 225 242 260 273 287 307 307 292 298 293 298 25 56 56 117 151 176 182 186 192 196 208 217 216 213 215 220 222 212 201 201 208 221 225 216 199 195 201 200 204 215 222 227 225 217 212 210 210 209 208 205 200 201 204 208 213 219 229 247 302 338 346 352 358 4 12 13 7 7 12 12 5 352 335 306 278 267
187 135 311 288 276 265 258 236 218 224 248 263 269 280 303 299 264 309 309 279 262 36 56 124 148 154 148 145 169 186 206 212 212 211 211 212 211 204 201 200 197 199 201 205 218 219 209 206 211 216 223 229 229 223 219 219 221 218 215 212 207 209 211 211 217 224 230 235 255 301 326 341 353 1 8 9 4 4 9 11 10 2 349 330 291 261
230 254 301 294 286 269 261 249 224 216 235 253 266 280 297 292 258 284 323 287 247 168 81 97 175 158 136 124 138 159 205 213 211 211 210 208 205 200 200 202 199 196 192 193 199 201 203 209 214 219 224 229 230 228 226 228 229 224 221 220 218 218 217 216 220 226 228 236 250 276 309 333 350 359 4 5 1 1 5 10 11 6 356 343 317 277
251 269 294 301 288 255 246 243 220 207 221 244 265 284 298 292 264 275 294 288 236 191 158 170 232 247 194 108 62 55 128 213 214 211 209 206 201 199 201 203 202 198 195 194 192 192 199 208 216 221 225 228 230 228 227 229 229 226 225 226 226 225 223 221 224 227 229 235 252 276 306 329 345 353 358 360 357 358 2 6 9 7 0 349 333 304
253 265 294 319 296 244 233 233 217 210 225 247 265 278 289 288 274 273 264 255 205 195 228 219 220 258 264 248 315 349 360 248 227 220 214 206 199 199 202 203 203 199 196 197 193 190 194 199 203 202 204 214 224 227 227 229 232 230 229 229 230 230 228 225 226 227 229 235 253 278 305 321 337 345 351 358 355 352 357 1 6 7 4 358 347 327
258 265 290 318 297 238 217 218 215 219 241 251 252 259 265 265 264 253 239 220 171 183 231 201 201 221 280 261 261 287 289 280 243 234 222 211 204 202 203 203 202 199 194 191 185 181 181 181 183 187 191 197 209 223 228 231 234 233 231 230 232 232 230 228 227 227 230 239 253 272 292 302 318 332 340 354 353 348 350 356 6 10 9 12 8 357
262 267 279 295 277 235 219 223 218 218 241 247 246 251 255 256 244 223 209 187 153 190 200 162 185 196 257 265 252 264 271 257 250 246 230 216 208 204 204 201 199 197 190 184 181 176 173 178 193 206 202 195 199 210 220 226 230 233 233 232 230 229 228 226 225 227 231 238 248 260 274 284 298 311 324 346 349 341 345 357 10 16 18 21 21 19
259 264 272 273 251 230 227 230 223 219 225 228 251 238 213 216 207 191 177 170 157 264 181 152 152 182 199 244 245 255 261 259 261 260 240 219 209 205 205 203 200 198 191 185 183 176 173 182 205 216 205 201 206 209 214 222 227 229 228 226 225 224 226 226 226 228 232 237 242 250 262 270 276 284 300 327 337 335 345 1 16 25 28 29 29 29
255 256 262 259 237 224 228 228 222 233 229 220 234 218 197 168 147 198 190 164 192 187 170 158 141 180 214 241 251 259 262 258 261 261 230 210 206 206 204 204 206 204 196 191 185 178 177 185 200 213 216 214 209 208 215 222 231 235 233 229 227 228 231 230 226 226 231 236 237 241 252 259 264 267 270 284 306 326 343 2 23 35 39 40 39 38
249 247 245 243 232 221 223 223 221 232 227 218 227 223 205 151 85 242 251 283 255 185 165 163 158 202 205 241 272 266 261 257 257 248 208 189 195 203 200 202 207 205 199 194 188 184 184 185 193 207 211 202 192 203 225 232 241 247 247 245 238 238 242 239 231 226 227 232 234 236 243 249 253 255 252 253 266 294 326 360 39 49 52 52 51 48
220 225 228 232 236 226 223 227 232 239 233 227 228 223 215 201 176 216 223 197 192 167 154 158 168 202 155 107 2 280 258 254 243 231 208 193 198 202 193 192 196 197 196 195 190 188 187 186 194 202 200 196 204 229 239 243 249 248 251 258 252 244 245 244 239 232 226 229 231 234 239 241 242 246 245 242 241 240 238 198 81 67 63 63 61 58
204 210 220 226 228 222 226 229 228 231 232 223 216 214 220 222 213 202 195 185 165 132 135 164 149 130 136 119 96 101 103 134 180 209 208 205 206 198 186 185 188 191 194 196 194 193 189 188 194 200 203 214 230 238 242 249 258 258 264 274 268 255 247 243 241 238 234 231 233 240 242 235 229 235 242 240 229 221 220 199 145 113 82 73 70 67
202 216 218 219 217 214 223 219 209 217 223 209 205 209 214 220 219 199 146 130 127 109 176 187 144 138 143 148 156 154 128 112 115 131 156 175 184 181 179 184 187 187 187 194 199 198 193 192 199 209 220 233 236 241 250 257 268 281 282 275 271 267 266 258 244 240 236 231 236 246 244 229 221 228 238 238 225 208 211 211 181 160 131 94 88 77
198 215 215 213 212 208 213 209 201 207 206 200 206 205 198 201 206 192 141 77 84 107 217 196 147 154 155 167 193 205 211 175 147 137 137 151 164 169 180 195 209 210 199 200 204 201 192 193 206 225 236 241 239 244 253 261 271 281 275 271 274 274 272 266 249 235 230 227 233 244 239 224 219 224 233 238 233 218 207 214 204 184 181 156 132 104
205 215 211 206 204 191 202 208 202 196 197 210 207 192 188 185 183 177 156 125 143 163 241 237 102 156 171 185 202 213 219 211 203 206 219 223 213 217 225 231 250 254 227 215 216 224 234 234 235 238 239 237 238 244 252 262 271 269 264 271 281 279 265 261 255 243 237 235 238 245 236 221 221 229 236 240 241 231 207 205 209 203 200 191 177 175
210 219 214 194 194 190 192 194 189 178 181 193 183 185 202 205 181 178 171 169 168 160 207 209 55 158 184 192 207 220 223 219 220 227 240 251 245 239 237 232 231 224 217 228 241 247 252 252 243 236 229 220 224 236 242 249 254 245 246 257 269 266 255 256 257 253 252 250 249 248 233 221 224 233 240 245 244 234 214 203 204 209 211 207 200 198
209 213 209 185 187 195 180 162 167 174 173 165 165 186 202 194 175 172 176 178 164 156 166 147 352 207 177 172 203 216 220 220 223 227 234 246 240 223 213 205 200 198 209 231 246 237 231 230 223 216 210 206 209 218 218 213 210 208 220 233 241 242 239 250 257 256 259 256 252 247 230 221 224 230 239 246 239 226 217 208 203 211 214 212 212 209
202 206 206 187 171 174 158 141 150 174 205 192 148 165 178 183 179 166 170 183 167 166 169 150 188 205 170 153 162 164 178 198 208 215 219 221 210 199 193 186 186 194 201 211 217 207 201 199 206 212 215 221 225 223 219 214 207 202 209 221 230 234 235 242 248 252 255 246 241 242 228 220 223 226 233 242 236 222 216 207 202 212 214 214 219 216
197 207 205 182 153 154 144 136 143 147 257 250 169 169 175 184 190 181 181 182 165 156 155 138 146 188 167 159 163 155 156 169 177 187 196 194 188 188 192 194 204 210 204 213 221 216 219 219 223 229 232 237 241 238 238 236 223 216 222 231 231 234 234 232 237 245 246 235 229 232 227 221 223 223 227 237 236 224 216 208 203 212 217 217 221 220
198 205 197 162 131 143 144 136 148 176 225 224 153 168 180 178 195 202 196 182 169 159 155 130 112 190 170 165 176 171 165 164 167 174 180 184 187 192 203 217 237 247 246 253 257 253 253 247 239 240 243 244 243 241 244 243 230 222 228 236 235 235 235 230 234 239 241 236 227 226 228 224 223 223 225 233 233 222 217 212 206 211 220 221 220 219
205 205 195 165 122 134 148 156 169 172 178 156 122 138 158 161 179 190 181 177 171 175 176 157 152 186 171 167 178 179 179 176 177 188 200 211 213 215 223 231 240 245 242 244 249 249 246 242 238 243 252 256 250 245 243 240 232 225 224 230 234 237 239 238 238 235 236 239 233 231 234 230 226 225 226 230 229 220 220 219 211 212 221 227 229 227
212 207 198 193 152 148 162 185 197 193 168 127 110 125 147 145 150 153 164 175 173 181 186 172 163 167 164 166 170 170 180 189 191 196 204 214 219 223 231 234 233 236 237 242 248 249 248 251 255 256 259 265 264 254 245 240 237 233 227 229 232 234 235 234 233 232 234 240 241 243 243 239 235 232 232 234 231 226 229 232 228 222 227 238 243 237
190 188 194 213 201 162 162 171 190 199 195 177 244 289 292 122 120 130 150 169 157 153 162 171 174 171 165 165 164 162 172 189 200 205 208 212 213 212 218 224 228 235 244 252 259 261 263 269 274 267 261 262 262 254 246 242 241 240 237 235 230 227 231 231 227 228 231 236 241 246 247 246 242 239 241 243 239 236 239 242 238 233 237 251 255 247
210 191 188 212 199 156 160 167 184 200 203 211 249 277 292 306 312 154 151 159 156 150 147 159 171 174 169 167 167 167 174 186 196 204 211 216 217 218 222 226 232 237 243 250 257 263 270 276 277 273 266 264 262 259 255 251 248 247 246 241 233 229 230 230 226 225 224 225 231 240 247 248 241 234 237 240 237 237 243 245 241 238 243 252 257 255
233 236 227 223 211 179 173 176 202 237 221 206 243 262 274 285 286 274 220 181 179 192 169 162 168 175 173 174 176 177 183 192 196 201 208 216 225 231 237 241 244 247 251 254 257 259 263 267 266 266 268 268 269 269 267 265 261 258 255 251 244 238 233 228 224 220 217 217 222 230 233 231 223 219 224 232 234 235 238 238 238 243 249 253 255 256
224 224 221 220 206 193 205 229 250 255 247 232 244 259 264 269 263 247 210 189 193 204 177 170 174 178 176 180 186 185 189 195 197 201 207 215 222 227 234 241 245 250 255 258 260 259 259 261 261 262 262 264 271 274 272 270 267 264 263 258 251 243 237 231 221 212 209 211 217 221 219 215 214 214 219 229 235 238 238 231 230 239 248 248 249 254
204 200 205 214 207 200 218 234 231 234 236 231 231 245 252 251 236 216 194 180 179 184 181 183 191 189 183 189 195 196 198 198 199 203 206 211 218 221 228 235 239 244 248 252 258 261 263 265 265 264 263 261 260 259 261 265 265 264 264 263 259 254 249 241 228 218 215 212 208 207 204 204 207 209 214 223 230 238 241 234 227 231 236 236 240 248
212 203 199 200 197 193 196 203 208 218 228 220 207 214 221 224 214 196 182 174 177 183 187 193 199 197 195 198 201 206 208 206 206 207 207 211 217 220 224 228 235 242 245 248 253 256 260 263 264 264 263 260 254 247 247 252 257 259 261 261 263 262 257 250 241 233 226 213 202 198 198 202 204 204 209 217 221 227 234 236 232 232 235 238 243 249
224 215 205 202 198 193 194 200 204 208 220 213 199 208 221 226 219 198 182 174 173 175 181 191 194 194 198 201 202 207 211 211 213 214 214 218 220 222 222 223 227 233 240 247 249 250 252 255 258 260 259 257 253 247 244 245 248 253 255 255 256 255 253 249 244 240 232 217 208 206 208 209 208 207 209 213 217 221 227 233 237 238 241 243 244 247
218 216 212 211 206 199 201 202 200 206 219 208 197 202 215 217 211 195 177 171 173 177 184 193 195 195 199 202 204 209 213 214 217 219 221 223 222 221 219 218 220 223 229 238 243 246 249 251 253 255 256 255 253 252 250 246 245 247 248 248 248 249 248 244 239 236 232 225 221 221 221 217 214 213 214 216 220 224 227 230 233 236 237 238 239 241
209 211 214 217 218 217 206 196 203 251 208 189 181 174 178 193 209 207 186 177 181 186 190 196 197 196 201 206 209 216 220 221 221 222 224 224 221 218 217 218 221 223 226 230 235 242 250 254 255 256 256 256 257 255 250 243 242 247 248 245 243 244 245 244 240 233 229 228 227 227 226 224 223 222 223 224 226 228 231 233 235 237 239 240 242 242
212 208 213 218 219 219 205 191 194 190 174 174 172 169 173 186 204 211 191 176 176 178 179 185 188 188 196 206 213 219 224 225 227 227 228 228 225 223 223 226 228 230 231 230 231 234 239 245 249 249 251 253 251 246 243 242 247 253 251 248 246 245 245 246 244 239 236 235 234 233 233 232 232 231 231 231 233 235 239 241 243 245 247 248 249 250
223 216 217 216 211 207 195 172 163 160 162 170 173 173 179 184 191 203 198 179 175 176 175 178 180 184 192 201 208 217 223 226 229 232 235 238 240 241 245 248 249 250 249 248 247 245 244 246 247 245 246 246 241 240 247 255 258 253 247 246 248 251 252 250 248 246 244 241 239 238 239 238 236 236 236 237 238 240 242 245 247 249 250 251 252 254
228 223 223 222 216 208 195 159 139 153 180 186 184 185 192 193 196 209 210 197 191 189 185 181 181 187 194 196 198 205 214 218 225 234 239 242 244 247 251 255 258 261 263 264 265 263 260 260 259 256 256 256 255 255 259 263 259 253 249 248 248 249 249 249 249 247 243 240 239 238 240 240 239 238 237 238 239 240 241 243 245 246 248 250 251 253
227 222 222 225 222 212 204 187 171 187 196 191 191 195 198 199 201 203 203 207 206 202 198 193 188 191 198 201 202 205 210 217 224 233 239 240 241 244 248 253 257 261 265 267 267 267 266 265 264 263 262 262 263 265 267 265 264 262 256 248 243 243 241 241 246 247 246 246 245 242 241 240 240 240 239 238 237 237 239 241 243 246 248 250 251 253
223 216 215 219 222 216 208 197 185 190 188 186 190 195 196 199 199 193 196 212 211 207 209 207 203 202 206 209 211 210 212 219 226 231 234 235 238 241 244 247 250 254 258 260 262 265 266 266 265 264 262 261 263 266 268 268 268 269 263 251 245 245 243 240 242 244 246 249 251 249 246 242 240 240 239 239 239 239 240 242 244 247 249 251 253 254
96 177 189 197 203 205 202 191 170 178 193 190 190 191 190 188 192 197 210 218 211 210 216 218 218 220 222 224 227 227 227 231 235 239 239 239 240 241 242 242 243 245 249 252 256 260 263 264 265 265 266 267 268 269 270 269 267 269 268 261 257 256 255 252 251 252 252 250 249 250 250 250 248 246 242 240 242 243 244 246 247 250 252 253 254 254
49 94 129 157 162 168 179 173 152 163 199 198 195 195 192 189 196 206 213 213 207 209 218 225 231 236 237 238 241 244 245 243 242 245 247 247 247 246 245 246 246 247 249 251 254 257 259 262 265 266 269 271 272 273 273 272 270 269 269 268 264 262 261 262 262 262 261 257 254 253 255 257 257 254 249 246 247 248 250 251 253 256 258 258 257 256
14 71 98 142 155 149 151 150 150 187 211 204 204 206 202 201 207 208 206 206 205 209 220 231 239 244 247 249 249 250 252 251 251 252 253 254 254 253 253 255 256 257 257 257 258 260 261 262 262 263 264 265 266 266 266 266 266 266 266 267 265 263 262 261 261 260 260 260 259 260 260 261 260 260 258 257 258 258 257 257 258 261 262 262 261 260
22 270 167 160 184 188 174 162 176 201 207 197 204 214 215 218 222 218 213 216 220 226 236 247 254 260 264 266 266 266 264 263 264 265 265 265 264 262 262 263 264 264 264 263 263 264 265 265 265 264 264 263 262 261 260 259 259 260 260 261 262 262 261 258 257 257 258 259 260 261 262 263 263 264 265 265 266 264 259 257 257 259 262 263 263 263
14 90 140 150 241 216 201 192 186 192 202 205 216 236 253 247 242 241 242 248 258 267 271 275 279 282 282 280 280 279 276 275 275 274 274 273 272 271 270 269 268 268 268 268 268 267 268 268 267 266 265 263 261 260 260 260 259 257 257 257 258 259 259 257 255 254 255 257 258 260 262 264 266 268 268 266 265 263 259 257 257 258 260 263 266 266
111 65 46 12 165 133 156 174 173 186 232 256 281 293 291 274 263 267 273 278 283 285 285 286 287 286 287 286 285 283 282 281 280 278 278 277 276 275 275 274 273 272 271 271 271 271 270 270 269 268 267 265 263 261 260 261 261 261 259 258 258 257 257 256 254 252 250 251 252 254 257 259 263 266 267 265 264 262 262 261 260 259 262 266 269 270
134 100 27 25 143 143 162 178 178 194 226 249 269 275 270 262 260 266 273 276 279 281 283 284 284 285 285 285 285 285 284 283 282 281 280 278 277 276 275 275 274 274 273 272 272 272 272 271 271 270 269 267 266 263 260 260 261 262 262 261 260 259 258 257 255 253 250 248 247 248 249 251 253 256 260 261 261 262 263 265 265 264 266 268 268 268
162 169 152 149 180 216 218 202 200 214 238 260 269 270 271 270 269 272 275 277 279 281 281 281 282 282 283 283 283 284 283 282 282 281 280 279 278 277 276 275 274 272 272 271 271 270 270 269 269 268 267 266 265 264 262 261 261 262 262 262 261 260 259 258 257 256 254 251 249 246 245 245 245 247 250 253 255 258 260 262 264 266 268 268 267 266
202 213 212 207 212 223 216 217 232 251 266 276 280 283 286 286 285 286 287 286 285 284 283 283 283 282 282 282 282 281 281 280 280 279 278 277 277 276 276 275 275 273 272 271 271 270 269 268 267 266 265 264 264 263 263 263 263 263 263 263 262 261 259 257 256 256 255 254 253 251 249 247 246 246 247 249 251 254 257 260 262 266 268 269 269 269
228 230 221 217 226 239 234 238 255 268 276 283 288 291 293 293 293 293 291 289 288 286 285 285 284 284 284 283 282 282 281 280 279 279 278 278 278 277 276 275 274 273 272 271 271 270 270 269 268 267 266 265 265 264 263 262 262 261 261 262 262 261 259 257 255 253 253 252 252 252 252 251 250 250 250 250 250 252 254 256 259 262 265 267 269 271
210 211 216 231 253 272 277 279 282 285 290 295 298 300 300 298 296 294 292 290 288 287 286 285 284 284 284 284 284 285 284 283 283 282 282 281 280 279 279 278 278 277 275 274 272 270 269 268 268 267 267 265 264 264 263 263 262 261 260 259 260 260 259 258 257 255 253 252 252 252 252 252 252 251 251 252 252 253 253 254 256 258 262 265 268 270
Height
3084 3084 3084 3084 3085 3086 3088 3090 3091 3091 3091 3091 3091 3091 3091 3090 3088 3088 3089 3087 3085 3085 3086 3088 3090 3091 3092 3094 3095 3097 3097 3099 3101 3101 3103 3105 3106 3107 3107 3108 3109 3109 3110 3111 3113 3114 3115 3116 3117 3118 3120 3121 3123 3126 3127 3128 3129 3131 3132 3133 3133 3134 3135 3135 3136 3135 3136 3135 3135 3135 3134 3134 3134 3132 3131 3130 3129 3127 3126 3126 3127 3127 3127 3126 3127 3127
3083 3083 3082 3083 3085 3087 3088 3089 3090 3090 3090 3090 3090 3090 3090 3090 3088 3087 3088 3086 3084 3084 3086 3087 3089 3090 3092 3094 3095 3096 3096 3097 3099 3100 3102 3104 3106 3106 3107 3108 3108 3109 3110 3111 3111 3112 3113 3115 3117 3118 3120 3121 3123 3125 3126 3127 3128 3130 3131 3132 3132 3133 3134 3134 3134 3134 3134 3134 3133 3133 3133 3133 3133 3132 3131 3130 3129 3127 3126 3125 3125 3125 3125 3126 3126 3126
3081 3081 3082 3083 3085 3086 3087 3088 3089 3089 3089 3089 3089 3089 3090 3089 3088 3087 3088 3087 3085 3085 3086 3087 3088 3089 3091 3093 3094 3095 3096 3096 3098 3100 3102 3104 3105 3106 3107 3107 3107 3108 3110 3110 3110 3110 3111 3113 3115 3116 3119 3121 3123 3124 3125 3126 3127 3129 3130 3131 3131 3132 3132 3132 3133 3133 3133 3132 3132 3132 3132 3132 3132 3132 3132 3131 3130 3128 3127 3126 3125 3124 3124 3125 3125 3125
3080 3080 3082 3083 3084 3085 3086 3087 3088 3088 3088 3088 3088 3089 3089 3089 3088 3087 3087 3087 3087 3087 3087 3088 3089 3090 3091 3092 3094 3095 3096 3097 3098 3100 3102 3104 3105 3105 3106 3107 3107 3108 3109 3110 3110 3110 3111 3111 3113 3114 3117 3119 3121 3122 3124 3125 3126 3128 3129 3130 3130 3130 3130 3131 3132 3132 3132 3131 3132 3132 3132 3132 3131 3131 3131 3130 3129 3128 3127 3126 3125 3124 3124 3124 3124 3124
3079 3080 3082 3083 3084 3084 3085 3086 3087 3087 3087 3087 3088 3088 3088 3088 3088 3087 3087 3088 3088 3088 3088 3089 3090 3091 3091 3092 3093 3094 3095 3096 3098 3099 3101 3103 3104 3105 3106 3107 3108 3108 3108 3109 3109 3110 3110 3111 3112 3113 3115 3117 3119 3120 3122 3123 3125 3127 3128 3128 3128 3129 3129 3130 3131 3131 3131 3131 3131 3132 3132 3132 3131 3131 3130 3130 3129 3128 3127 3126 3125 3124 3123 3123 3123 3123
3079 3080 3081 3082 3082 3083 3083 3084 3085 3086 3086 3086 3086 3087 3087 3087 3088 3087 3087 3087 3088 3088 3088 3089 3090 3092 3092 3092 3093 3093 3094 3095 3096 3098 3099 3101 3103 3104 3105 3106 3107 3108 3108 3109 3109 3109 3110 3111 3112 3113 3114 3116 3117 3119 3120 3121 3123 3125 3126 3126 3126 3127 3128 3129 3130 3131 3131 3131 3131 3132 3133 3132 3132 3131 3131 3130 3129 3128 3127 3126 3125 3124 3123 3122 3122 3122
3078 3079 3080 3081 3081 3081 3081 3082 3083 3085 3085 3085 3086 3086 3086 3087 3087 3087 3087 3087 3087 3088 3088 3088 3090 3091 3092 3092 3093 3093 3094 3094 3095 3096 3098 3100 3101 3103 3104 3106 3107 3107 3108 3109 3109 3109 3110 3111 3112 3113 3114 3115 3117 3118 3119 3120 3121 3122 3124 3124 3125 3126 3127 3129 3130 3130 3131 3131 3132 3132 3133 3133 3132 3131 3131 3131 3129 3128 3126 3125 3125 3124 3123 3122 3122 3122
3077 3078 3079 3079 3079 3080 3080 3080 3081 3083 3084 3085 3085 3085 3085 3085 3086 3086 3086 3087 3087 3087 3088 3088 3089 3090 3091 3092 3092 3093 3093 3093 3094 3095 3096 3098 3100 3102 3103 3105 3106 3107 3108 3108 3109 3109 3110 3111 3113 3114 3115 3116 3117 3118 3119 3119 3120 3121 3122 3123 3124 3125 3127 3129 3130 3130 3131 3131 3132 3133 3133 3133 3132 3131 3131 3131 3130 3128 3126 3125 3125 3124 3123 3122 3122 3122
3077 3077 3078 3078 3077 3078 3079 3080 3081 3082 3084 3084 3084 3084 3085 3085 3085 3086 3086 3086 3087 3087 3088 3088 3088 3089 3089 3090 3091 3092 3092 3093 3093 3094 3095 3097 3099 3101 3102 3104 3105 3106 3107 3108 3109 3109 3111 3112 3113 3114 3115 3116 3117 3118 3118 3119 3120 3121 3122 3123 3124 3125 3127 3129 3130 3131 3131 3132 3132 3133 3133 3132 3132 3131 3131 3131 3130 3128 3127 3126 3125 3124 3123 3123 3123 3122
3076 3076 3077 3077 3076 3077 3078 3079 3081 3082 3082 3083 3083 3083 3084 3084 3085 3085 3086 3086 3086 3087 3088 3088 3088 3089 3089 3089 3090 3091 3091 3092 3093 3094 3095 3096 3098 3099 3101 3103 3104 3105 3106 3107 3108 3109 3111 3112 3113 3114 3115 3116 3116 3117 3118 3119 3120 3120 3121 3122 3124 3125 3128 3129 3130 3131 3132 3132 3132 3132 3132 3132 3132 3132 3132 3131 3130 3129 3128 3126 3125 3124 3124 3123 3123 3123
3076 3076 3076 3076 3076 3077 3078 3079 3080 3081 3081 3082 3082 3082 3083 3084 3084 3085 3086 3086 3087 3088 3088 3088 3088 3089 3090 3089 3089 3089 3090 3091 3092 3093 3093 3094 3096 3098 3100 3102 3103 3104 3106 3107 3107 3108 3110 3111 3112 3113 3113 3114 3115 3116 3117 3118 3119 3120 3121 3122 3122 3124 3127 3129 3130 3131 3131 3131 3131 3131 3131 3131 3131 3131 3132 3131 3130 3129 3128 3127 3126 3125 3124 3124 3124 3124
3074 3075 3076 3076 3076 3076 3078 3079 3079 3080 3080 3081 3081 3081 3082 3083 3083 3084 3085 3085 3087 3088 3087 3087 3088 3089 3090 3088 3087 3088 3089 3089 3090 3091 3091 3092 3094 3097 3099 3100 3102 3104 3105 3106 3106 3107 3108 3110 3111 3112 3112 3113 3114 3115 3116 3117 3117 3116 3115 3117 3120 3123 3126 3129 3130 3130 3129 3129 3129 3129 3129 3130 3130 3131 3131 3131 3130 3129 3128 3127 3126 3126 3125 3125 3124 3124
3073 3074 3074 3075 3075 3075 3077 3077 3078 3078 3079 3079 3080 3080 3081 3083 3084 3084 3085 3086 3086 3087 3086 3087 3088 3088 3088 3087 3087 3087 3087 3087 3088 3089 3089 3090 3093 3096 3098 3099 3101 3103 3105 3105 3105 3106 3108 3109 3110 3111 3112 3113 3113 3115 3115 3115 3112 3110 3112 3117 3121 3124 3125 3127 3128 3128 3127 3127 3128 3128 3128 3128 3129 3130 3130 3130 3130 3129 3128 3128 3127 3126 3126 3125 3125 3125
3071 3072 3073 3074 3074 3074 3075 3076 3077 3077 3077 3077 3078 3079 3080 3082 3084 3086 3087 3087 3086 3085 3085 3086 3087 3087 3087 3087 3086 3086 3085 3086 3087 3088 3088 3089 3092 3095 3096 3098 3101 3102 3104 3104 3105 3106 3107 3108 3109 3111 3112 3113 3114 3115 3114 3112 3110 3111 3115 3118 3121 3122 3122 3122 3123 3123 3124 3125 3126 3127 3127 3127 3128 3129 3129 3129 3130 3129 3129 3128 3128 3127 3127 3126 3126 3125
3070 3070 3071 3072 3072 3073 3073 3074 3075 3075 3076 3076 3077 3077 3078 3079 3081 3082 3083 3083 3083 3083 3084 3085 3085 3085 3086 3086 3086 3085 3084 3084 3085 3087 3088 3089 3091 3093 3094 3096 3098 3100 3102 3103 3104 3106 3107 3108 3109 3110 3112 3113 3114 3114 3113 3110 3110 3114 3116 3115 3116 3118 3117 3117 3119 3120 3122 3123 3125 3126 3126 3126 3128 3128 3128 3129 3129 3129 3129 3129 3128 3128 3128 3127 3126 3126
3068 3069 3069 3070 3071 3071 3072 3072 3074 3074 3074 3074 3075 3075 3076 3076 3077 3079 3080 3080 3080 3081 3083 3083 3084 3085 3085 3086 3086 3085 3084 3084 3084 3085 3087 3088 3089 3091 3092 3094 3095 3097 3100 3102 3103 3104 3105 3107 3108 3109 3111 3112 3113 3112 3110 3109 3111 3115 3117 3114 3112 3113 3113 3115 3117 3118 3119 3120 3122 3123 3124 3125 3126 3127 3128 3128 3128 3128 3128 3128 3128 3128 3128 3128 3127 3127
3067 3067 3068 3069 3070 3070 3070 3071 3072 3072 3072 3072 3073 3073 3074 3075 3076 3077 3079 3079 3080 3081 3082 3083 3084 3085 3085 3085 3085 3085 3085 3085 3085 3085 3087 3088 3089 3090 3091 3092 3092 3093 3097 3100 3101 3101 3102 3104 3106 3108 3109 3110 3111 3109 3108 3108 3111 3114 3116 3112 3109 3109 3111 3114 3116 3115 3116 3118 3120 3122 3123 3123 3124 3126 3127 3126 3127 3127 3128 3128 3128 3128 3128 3128 3128 3128
3065 3066 3067 3068 3068 3068 3069 3070 3070 3070 3070 3071 3071 3072 3072 3074 3075 3076 3078 3081 3082 3083 3082 3082 3083 3084 3085 3084 3084 3085 3086 3086 3086 3086 3088 3089 3090 3091 3093 3094 3094 3094 3096 3098 3099 3099 3100 3103 3106 3107 3108 3108 3108 3107 3107 3107 3109 3112 3112 3110 3108 3109 3110 3112 3112 3113 3115 3116 3118 3120 3121 3121 3121 3123 3125 3125 3125 3126 3127 3127 3127 3127 3128 3128 3128 3128
3064 3065 3065 3066 3066 3066 3067 3069 3069 3069 3070 3070 3070 3071 3071 3072 3073 3074 3076 3080 3082 3084 3084 3083 3083 3083 3083 3083 3083 3084 3085 3086 3086 3087 3088 3089 3091 3093 3094 3095 3096 3096 3097 3098 3100 3100 3101 3103 3105 3105 3106 3107 3107 3106 3106 3106 3108 3110 3110 3108 3108 3108 3108 3109 3109 3110 3112 3113 3115 3117 3118 3119 3119 3120 3122 3123 3124 3125 3126 3126 3127 3127 3127 3128 3128 3128
3062 3063 3064 3065 3065 3065 3066 3067 3068 3069 3069 3069 3070 3070 3071 3071 3072 3072 3074 3075 3078 3082 3084 3083 3083 3083 3082 3083 3083 3083 3083 3085 3086 3087 3088 3089 3090 3092 3093 3093 3094 3095 3096 3097 3099 3100 3101 3102 3103 3103 3105 3105 3106 3106 3106 3106 3107 3108 3108 3107 3107 3107 3108 3108 3107 3108 3110 3111 3112 3114 3115 3116 3117 3118 3121 3123 3123 3124 3125 3125 3126 3126 3126 3127 3127 3127
3060 3061 3063 3064 3064 3064 3065 3066 3067 3068 3068 3069 3069 3070 3070 3070 3071 3072 3073 3074 3075 3079 3082 3083 3083 3082 3081 3082 3082 3081 3082 3084 3085 3087 3088 3088 3090 3091 3092 3093 3094 3095 3097 3097 3098 3099 3100 3101 3102 3103 3103 3104 3105 3105 3105 3105 3106 3106 3107 3107 3106 3106 3107 3107 3107 3108 3109 3109 3110 3111 3112 3114 3116 3118 3120 3121 3122 3123 3123 3123 3124 3125 3125 3125 3125 3125
3059 3060 3061 3063 3063 3063 3065 3066 3067 3067 3068 3068 3068 3068 3069 3069 3070 3071 3072 3074 3073 3075 3077 3079 3081 3081 3080 3081 3081 3081 3082 3083 3085 3087 3087 3088 3090 3092 3094 3095 3096 3097 3097 3098 3098 3099 3100 3101 3101 3102 3103 3103 3104 3104 3105 3105 3105 3105 3106 3106 3106 3106 3106 3106 3106 3107 3108 3108 3108 3109 3110 3113 3115 3117 3119 3119 3120 3121 3121 3121 3122 3123 3124 3124 3124 3124
3058 3059 3060 3062 3062 3063 3064 3065 3066 3067 3067 3067 3067 3067 3068 3068 3069 3069 3071 3072 3072 3074 3075 3076 3078 3079 3080 3081 3081 3081 3082 3083 3085 3087 3087 3088 3090 3092 3094 3095 3096 3096 3097 3097 3098 3099 3100 3100 3101 3101 3102 3102 3103 3103 3104 3104 3105 3105 3105 3105 3105 3106 3106 3106 3106 3106 3106 3107 3107 3107 3109 3111 3113 3115 3117 3117 3117 3119 3120 3120 3121 3122 3123 3123 3123 3123
3058 3058 3059 3061 3062 3063 3064 3064 3065 3066 3066 3066 3066 3067 3067 3068 3068 3068 3069 3070 3071 3073 3074 3075 3078 3079 3079 3080 3081 3082 3082 3083 3085 3086 3087 3088 3089 3091 3092 3093 3094 3094 3095 3096 3097 3097 3098 3099 3100 3100 3100 3101 3101 3102 3103 3103 3104 3104 3104 3104 3104 3105 3105 3105 3105 3105 3105 3105 3105 3106 3107 3109 3111 3113 3114 3115 3115 3116 3117 3118 3118 3119 3120 3121 3121 3122
3057 3057 3058 3059 3062 3064 3064 3064 3064 3065 3065 3065 3066 3067 3067 3067 3067 3068 3069 3069 3070 3072 3072 3074 3077 3078 3078 3080 3081 3081 3083 3083 3084 3086 3087 3088 3089 3089 3090 3091 3091 3092 3093 3094 3095 3096 3096 3097 3098 3098 3098 3099 3100 3101 3101 3102 3102 3103 3103 3103 3103 3103 3104 3104 3104 3104 3103 3104 3105 3105 3105 3106 3107 3109 3111 3112 3114 3114 3115 3115 3116 3117 3117 3118 3119 3120
3056 3056 3057 3057 3059 3062 3063 3063 3062 3064 3065 3065 3066 3067 3067 3067 3067 3067 3069 3069 3070 3071 3072 3073 3074 3076 3077 3079 3079 3081 3083 3084 3085 3085 3086 3087 3088 3089 3089 3090 3090 3091 3092 3092 3093 3094 3095 3095 3096 3096 3096 3097 3098 3099 3100 3100 3100 3101 3101 3101 3101 3102 3102 3102 3102 3103 3103 3103 3104 3104 3105 3105 3105 3106 3108 3110 3112 3113 3113 3114 3116 3116 3116 3116 3118 3119
3054 3055 3056 3056 3057 3058 3059 3061 3061 3063 3064 3065 3066 3067 3067 3066 3067 3067 3068 3069 3069 3070 3071 3072 3072 3074 3076 3077 3078 3080 3081 3083 3084 3085 3085 3086 3087 3088 3089 3089 3090 3090 3091 3091 3092 3092 3093 3093 3094 3094 3095 3095 3096 3097 3097 3098 3098 3099 3099 3100 3099 3100 3100 3100 3101 3101 3102 3103 3103 3103 3104 3104 3105 3105 3107 3108 3110 3111 3111 3112 3114 3114 3114 3115 3116 3118
3053 3054 3055 3056 3056 3057 3058 3060 3061 3062 3063 3065 3066 3066 3066 3066 3066 3067 3068 3069 3069 3070 3070 3071 3071 3072 3074 3075 3077 3078 3079 3081 3082 3083 3084 3085 3086 3087 3088 3089 3089 3090 3090 3090 3090 3091 3091 3092 3093 3093 3093 3094 3094 3094 3095 3096 3096 3097 3098 3098 3098 3098 3098 3098 3098 3099 3100 3101 3102 3102 3102 3103 3104 3104 3106 3106 3107 3108 3109 3110 3111 3111 3111 3113 3114 3114
3052 3054 3055 3056 3056 3057 3058 3059 3060 3062 3063 3064 3065 3065 3065 3065 3066 3066 3067 3068 3069 3069 3070 3070 3071 3072 3073 3074 3075 3076 3077 3078 3080 3081 3082 3083 3084 3085 3086 3087 3088 3089 3089 3089 3089 3089 3090 3090 3091 3091 3092 3092 3092 3092 3093 3094 3095 3095 3096 3096 3096 3096 3096 3096 3096 3097 3098 3098 3099 3099 3100 3100 3102 3102 3103 3104 3104 3105 3106 3108 3109 3109 3109 3110 3111 3111
3051 3053 3055 3055 3056 3057 3057 3058 3060 3062 3063 3063 3063 3064 3064 3065 3065 3065 3067 3068 3069 3069 3070 3070 3071 3072 3072 3073 3074 3075 3076 3077 3078 3079 3080 3081 3082 3083 3084 3085 3086 3086 3087 3087 3087 3087 3087 3088 3088 3089 3089 3090 3090 3090 3091 3091 3092 3093 3094 3094 3095 3095 3095 3095 3095 3095 3095 3096 3097 3097 3098 3098 3100 3100 3101 3102 3103 3103 3104 3105 3106 3107 3108 3108 3109 3109
3051 3053 3054 3054 3055 3056 3057 3058 3060 3061 3061 3062 3062 3063 3064 3064 3064 3065 3066 3067 3068 3069 3069 3070 3071 3072 3072 3072 3073 3074 3075 3076 3077 3077 3078 3079 3080 3080 3081 3082 3083 3083 3084 3084 3085 3085 3085 3085 3086 3086 3087 3087 3088 3088 3089 3089 3089 3090 3091 3092 3092 3093 3093 3093 3093 3093 3094 3094 3095 3096 3096 3097 3098 3099 3099 3100 3101 3101 3102 3102 3103 3104 3106 3106 3107 3107
3050 3051 3053 3054 3055 3056 3057 3058 3059 3059 3060 3061 3061 3062 3063 3063 3064 3064 3065 3066 3066 3067 3068 3069 3070 3071 3071 3071 3072 3073 3074 3075 3075 3076 3076 3077 3078 3078 3079 3079 3080 3080 3081 3081 3082 3083 3083 3083 3084 3084 3084 3085 3086 3086 3087 3087 3087 3088 3088 3089 3090 3090 3091 3091 3091 3091 3092 3093 3093 3094 3095 3096 3097 3097 3098 3098 3098 3099 3099 3100 3100 3101 3102 3103 3104 3104
3049 3050 3052 3053 3054 3055 3056 3057 3057 3058 3059 3060 3060 3061 3062 3062 3063 3063 3064 3064 3065 3066 3066 3067 3068 3069 3069 3070 3071 3072 3072 3073 3074 3074 3075 3076 3076 3076 3077 3077 3078 3078 3078 3079 3080 3080 3081 3081 3081 3082 3082 3083 3083 3084 3084 3084 3084 3085 3086 3087 3088 3088 3089 3089 3089 3089 3090 3090 3091 3092 3093 3093 3094 3095 3096 3096 3097 3097 3097 3098 3098 3099 3100 3100 3101 3102
3049 3050 3051 3052 3053 3054 3054 3055 3056 3057 3058 3058 3059 3060 3061 3061 3062 3062 3063 3063 3064 3064 3065 3066 3066 3067 3067 3068 3069 3070 3071 3072 3072 3073 3073 3074 3074 3074 3074 3075 3075 3075 3076 3077 3077 3078 3078 3078 3078 3079 3080 3080 3081 3081 3081 3082 3082 3083 3084 3084 3085 3086 3087 3087 3087 3088 3088 3088 3089 3090 3090 3091 3092 3093 3093 3094 3095 3096 3096 3097 3097 3097 3098 3099 3100 3100
3048 3049 3050 3050 3051 3052 3053 3054 3055 3056 3056 3057 3058 3059 3059 3060 3061 3061 3061 3062 3063 3063 3064 3064 3065 3065 3066 3067 3068 3069 3070 3070 3071 3072 3072 3073 3073 3073 3073 3073 3073 3074 3074 3075 3075 3075 3075 3076 3076 3076 3077 3078 3078 3078 3078 3078 3079 3080 3081 3082 3082 3083 3084 3085 3085 3086 3086 3086 3087 3088 3088 3089 3090 3090 3091 3092 3093 3093 3094 3095 3095 3096 3096 3097 3097 3097
3047 3048 3049 3049 3050 3051 3052 3053 3054 3055 3055 3056 3057 3057 3058 3059 3059 3060 3060 3061 3061 3062 3062 3063 3063 3064 3065 3066 3067 3067 3068 3068 3069 3070 3071 3071 3071 3072 3072 3072 3073 3073 3073 3073 3073 3073 3073 3073 3073 3073 3074 3074 3075 3075 3075 3075 3076 3077 3078 3078 3079 3080 3081 3082 3083 3083 3084 3084 3085 3085 3086 3086 3087 3088 3088 3089 3090 3090 3091 3092 3092 3093 3093 3093 3094 3094
3045 3046 3047 3048 3049 3050 3051 3052 3054 3055 3055 3055 3055 3056 3057 3057 3058 3058 3059 3060 3060 3061 3061 3061 3062 3062 3063 3064 3065 3066 3066 3067 3068 3069 3069 3070 3070 3071 3071 3071 3072 3072 3073 3073 3073 3072 3072 3071 3071 3071 3071 3072 3072 3072 3072 3073 3073 3073 3074 3075 3076 3076 3077 3078 3079 3080 3080 3081 3081 3082 3082 3083 3083 3084 3085 3085 3086 3087 3087 3088 3088 3089 3089 3089 3090 3090
3043 3043 3045 3046 3047 3048 3049 3051 3054 3055 3054 3053 3054 3055 3056 3056 3056 3056 3057 3058 3059 3059 3060 3061 3061 3062 3062 3063 3064 3065 3066 3066 3067 3067 3067 3068 3069 3069 3069 3069 3070 3070 3070 3070 3070 3070 3070 3070 3070 3069 3069 3069 3069 3069 3070 3070 3070 3070 3071 3071 3072 3073 3074 3075 3075 3075 3076 3076 3077 3077 3078 3079 3080 3080 3081 3082 3083 3083 3084 3084 3084 3085 3085 3086 3086 3086
3039 3041 3042 3044 3044 3045 3046 3048 3050 3051 3050 3051 3052 3054 3054 3055 3055 3056 3057 3057 3057 3057 3059 3060 3061 3062 3062 3063 3063 3064 3064 3064 3065 3065 3065 3066 3066 3066 3066 3066 3066 3067 3067 3067 3067 3067 3067 3067 3067 3067 3067 3067 3067 3067 3067 3067 3067 3068 3068 3068 3068 3069 3069 3070 3071 3071 3072 3073 3073 3074 3075 3075 3076 3077 3078 3079 3080 3080 3080 3080 3081 3081 3081 3082 3082 3083
3037 3038 3040 3041 3042 3042 3043 3045 3046 3047 3048 3049 3051 3052 3052 3053 3054 3055 3055 3054 3054 3055 3057 3059 3061 3062 3063 3063 3063 3063 3063 3063 3063 3064 3064 3064 3063 3063 3063 3063 3063 3063 3064 3064 3064 3064 3064 3064 3064 3064 3064 3064 3064 3064 3065 3065 3065 3065 3065 3066 3066 3066 3066 3066 3067 3068 3069 3070 3071 3071 3071 3072 3072 3073 3074 3075 3076 3077 3077 3077 3077 3078 3078 3078 3079 3079
3036 3037 3038 3039 3039 3040 3041 3043 3044 3045 3046 3047 3048 3049 3051 3052 3053 3053 3051 3051 3052 3054 3056 3057 3059 3060 3061 3062 3062 3062 3062 3062 3062 3062 3062 3061 3061 3061 3061 3061 3060 3061 3061 3061 3061 3061 3061 3061 3061 3061 3061 3061 3061 3061 3062 3062 3062 3062 3063 3063 3064 3064 3064 3065 3065 3065 3066 3067 3067 3068 3068 3069 3069 3070 3071 3072 3072 3073 3074 3074 3074 3074 3074 3075 3075 3075
3037 3037 3038 3038 3039 3039 3040 3041 3043 3044 3045 3046 3047 3048 3049 3050 3050 3050 3049 3050 3051 3053 3054 3055 3056 3057 3058 3059 3060 3060 3060 3060 3060 3059 3059 3059 3059 3059 3059 3058 3058 3058 3058 3058 3059 3059 3059 3059 3058 3058 3058 3058 3058 3058 3058 3058 3058 3058 3058 3059 3059 3059 3060 3061 3062 3062 3063 3063 3063 3063 3064 3065 3066 3066 3067 3067 3068 3069 3069 3070 3070 3071 3071 3071 3071 3071
3037 3038 3038 3039 3039 3040 3040 3041 3042 3043 3044 3045 3046 3047 3047 3048 3048 3048 3048 3049 3050 3051 3052 3053 3054 3054 3055 3056 3056 3057 3057 3057 3056 3056 3056 3056 3056 3056 3056 3055 3055 3055 3055 3055 3055 3055 3054 3054 3054 3054 3054 3054 3054 3054 3054 3054 3053 3053 3053 3054 3054 3054 3055 3056 3057 3058 3059 3060 3060 3060 3060 3061 3061 3062 3063 3063 3064 3064 3065 3065 3066 3066 3067 3067 3067 3067
3038 3038 3038 3039 3039 3040 3040 3040 3041 3042 3043 3044 3045 3046 3046 3046 3047 3047 3048 3048 3049 3050 3050 3051 3052 3052 3053 3053 3054 3054 3054 3054 3053 3053 3053 3053 3053 3053 3052 3052 3051 3050 3050 3050 3050 3050 3049 3049 3049 3049 3049 3049 3049 3049 3049 3049 3049 3049 3049 3049 3049 3049 3049 3050 3051 3052 3053 3054 3055 3056 3056 3057 3057 3058 3059 3059 3060 3060 3061 3061 3061 3062 3062 3062 3063 3063
3038 3038 3038 3039 3039 3039 3040 3040 3041 3042 3043 3044 3045 3045 3046 3046 3047 3047 3048 3048 3048 3049 3049 3050 3050 3050 3050 3050 3050 3050 3050 3050 3050 3049 3049 3049 3049 3048 3048 3048 3047 3047 3046 3045 3044 3044 3044 3043 3043 3043 3043 3043 3044 3043 3043 3043 3043 3043 3044 3044 3044 3044 3045 3045 3046 3046 3047 3048 3049 3050 3050 3051 3052 3052 3053 3054 3055 3055 3056 3057 3057 3058 3058 3058 3058 3058
3038 3038 3038 3039 3039 3040 3040 3041 3041 3042 3043 3043 3044 3045 3046 3046 3047 3047 3047 3048 3048 3048 3048 3048 3048 3048 3047 3047 3046 3046 3046 3045 3045 3044 3044 3043 3043 3043 3042 3042 3041 3041 3040 3039 3039 3038 3037 3037 3037 3036 3036 3036 3037 3037 3037 3037 3037 3037 3037 3037 3038 3038 3039 3039 3040 3041 3041 3042 3042 3043 3044 3045 3046 3046 3047 3048 3049 3050 3051 3052 3052 3053 3053 3053 3053 3053
3039 3039 3039 3039 3039 3040 3040 3041 3042 3042 3043 3043 3044 3044 3045 3046 3046 3046 3046 3046 3046 3046 3046 3045 3045 3044 3044 3043 3042 3041 3041 3040 3039 3039 3038 3038 3037 3037 3036 3035 3035 3034 3034 3033 3032 3031 3031 3031 3030 3030 3029 3029 3029 3029 3029 3029 3029 3029 3030 3030 3031 3031 3032 3033 3033 3034 3035 3036 3037 3037 3038 3039 3040 3041 3042 3043 3043 3044 3045 3046 3046 3047 3048 3048 3049 3049
3039 3039 3040 3040 3040 3040 3041 3041 3042 3042 3042 3043 3043 3043 3044 3044 3044 3044 3044 3044 3043 3043 3042 3042 3041 3040 3039 3038 3037 3037 3036 3035 3034 3033 3032 3031 3031 3030 3029 3029 3028 3027 3027 3026 3025 3025 3024 3024 3024 3023 3023 3022 3022 3022 3022 3022 3023 3023 3023 3023 3023 3024 3025 3025 3026 3027 3028 3029 3030 3031 3032 3033 3034 3035 3036 3037 3038 3038 3039 3040 3041 3041 3042 3043 3044 3044
3039 3039 3040 3040 3040 3041 3041 3042 3042 3042 3042 3041 3041 3042 3042 3041 3041 3041 3040 3040 3039 3039 3038 3037 3037 3036 3035 3033 3032 3031 3030 3030 3028 3027 3026 3025 3024 3023 3023 3022 3021 3021 3020 3019 3019 3018 3017 3017 3017 3017 3016 3016 3016 3016 3016 3017 3017 3017 3017 3016 3016 3017 3017 3018 3018 3019 3020 3022 3023 3024 3026 3026 3027 3028 3029 3030 3032 3032 3033 3034 3035 3036 3037 3037 3038 3039
3038 3039 3039 3039 3040 3040 3041 3041 3041 3041 3041 3040 3040 3040 3040 3039 3038 3037 3036 3035 3035 3034 3034 3033 3032 3031 3030 3028 3027 3026 3025 3024 3023 3021 3019 3019 3018 3017 3016 3015 3015 3014 3013 3013 3012 3012 3011 3010 3010 3010 3010 3010 3010 3010 3010 3011 3011 3011 3011 3010 3009 3009 3009 3010 3010 3011 3012 3013 3015 3017 3018 3020 3021 3022 3023 3024 3025 3026 3027 3029 3030 3030 3031 3032 3033 3034
3037 3038 3038 3038 3039 3039 3040 3040 3040 3040 3039 3039 3038 3037 3037 3036 3035 3034 3033 3032 3031 3030 3030 3029 3028 3027 3025 3024 3022 3021 3020 3018 3017 3015 3014 3013 3012 3011 3010 3009 3008 3007 3007 3006 3005 3005 3004 3004 3003 3003 3003 3003 3003 3003 3004 3004 3005 3005 3004 3004 3003 3002 3001 3001 3001 3002 3004 3005 3007 3009 3011 3012 3013 3015 3016 3017 3018 3020 3021 3023 3024 3025 3026 3027 3028 3029